FW0886 Weather Reports


time (UTC)temp
C
wind
direction
speed
KPH
gust
KPH
rain 1hr
cm
rain 24hr
cm
rain mn
cm
humidity
%
barometer
mb
20260507191336 19 23 11.3 22.5 0.00 0.00 0.00 48 1012.7
20260507190317 20 203 8.0 17.7 0.00 0.00 0.00 49 1012.9
20260507185316 19 248 6.4 14.5 0.00 0.00 0.00 48 1012.9
20260507184316 20 135 8.0 17.7 0.00 0.00 0.00 49 1013.0
20260507183316 18 135 4.8 6.4 0.00 0.00 0.00 51 1013.1
20260507182336 18 203 6.4 9.7 0.00 0.00 0.00 51 1013.2
20260507181316 19 113 8.0 12.9 0.00 0.00 0.00 53 1013.5
20260507180336 19 225 4.8 8.0 0.00 0.00 0.00 49 1013.6
20260507175316 18 135 3.2 11.3 0.00 0.00 0.00 53 1013.8
20260507174316 18 203 3.2 8.0 0.00 0.00 0.00 51 1013.8
20260507173316 19 0 6.4 11.3 0.00 0.00 0.00 55 1013.9
20260507172316 18 158 6.4 11.3 0.00 0.00 0.00 52 1014.0
20260507171356 18 135 1.6 4.8 0.00 0.00 0.00 54 1014.1
20260507170316 17 135 4.8 11.3 0.00 0.00 0.00 52 1014.3
20260507165316 18 203 9.7 17.7 0.00 0.00 0.00 52 1014.5
20260507164316 17 68 4.8 6.4 0.00 0.00 0.00 54 1014.6
20260507163316 17 203 6.4 20.9 0.00 0.00 0.00 54 1014.9
20260507162316 17 180 6.4 17.7 0.00 0.00 0.00 53 1014.9
20260507161316 17 23 4.8 9.7 0.00 0.00 0.00 55 1014.9
20260507160316 17 225 9.7 20.9 0.00 0.00 0.00 56 1015.0
20260507155316 17 135 9.7 22.5 0.00 0.00 0.00 55 1015.1
20260507154316 16 158 4.8 8.0 0.00 0.00 0.00 58 1015.0
20260507153336 16 203 8.0 16.1 0.00 0.00 0.00 58 1015.2
20260507152316 16 203 4.8 14.5 0.00 0.00 0.00 58 1015.2
20260507151316 16 180 3.2 8.0 0.00 0.00 0.00 58 1015.3
20260507150316 15 113 4.8 11.3 0.00 0.00 0.00 58 1015.3
20260507145316 15 248 8.0 11.3 0.00 0.00 0.00 60 1015.4
20260507144316 15 113 4.8 11.3 0.00 0.00 0.00 61 1015.5
20260507143316 14 158 6.4 19.3 0.00 0.00 0.00 62 1015.4
20260507142316 13 0.0 1.6 0.00 0.00 0.00 64 1015.4
20260507141336 13 45 1.6 6.4 0.00 0.00 0.00 66 1015.6
20260507140316 12 225 4.8 8.0 0.00 0.00 0.00 66 1015.5
20260507135316 12 225 1.6 3.2 0.00 0.00 0.00 69 1015.4
20260507134316 12 0.0 1.6 0.00 0.00 0.00 70 1015.6
20260507133315 11 113 4.8 9.7 0.00 0.00 0.00 69 1015.6
20260507132316 11 248 3.2 6.4 0.00 0.00 0.00 70 1015.6
20260507131316 11 180 3.2 4.8 0.00 0.00 0.00 72 1015.7
20260507130315 10 180 3.2 8.0 0.00 0.00 0.00 74 1016.0
20260507125336 10 0.0 1.6 0.00 0.00 0.00 75 1016.0
20260507124316 9 135 1.6 4.8 0.00 0.00 0.00 75 1016.0
20260507123315 8 203 1.6 3.2 0.00 0.00 0.00 75 1016.0
20260507122316 8 0.0 1.6 0.00 0.00 0.00 76 1015.9
20260507121315 8 0.0 1.6 0.00 0.00 0.00 77 1015.9
20260507120316 7 0.0 1.6 0.00 0.00 0.00 77 1015.8
20260507115316 7 0.0 1.6 0.00 0.00 0.00 78 1015.8
20260507114315 7 0.0 1.6 0.00 0.00 0.00 79 1015.8
20260507113315 6 225 1.6 3.2 0.00 0.00 0.00 80 1015.8
20260507112315 6 0.0 0.0 0.00 0.00 0.00 79 1015.8
20260507111336 6 0.0 0.0 0.00 0.00 0.00 79 1015.8
20260507110316 6 0.0 0.0 0.00 0.00 0.00 78 1015.8
20260507105315 6 0.0 1.6 0.00 0.00 0.00 78 1015.7
20260507104315 6 0.0 0.0 0.00 0.00 0.00 78 1015.7
20260507103315 6 0.0 0.0 0.00 0.00 0.00 78 1015.7
20260507102315 6 0.0 0.0 0.00 0.00 0.00 77 1015.7
20260507101336 6 0.0 0.0 0.00 0.00 0.00 76 1015.8
20260507100317 6 0.0 1.6 0.00 0.00 0.00 75 1015.9
20260507095315 6 0.0 0.0 0.00 0.00 0.00 75 1016.0
20260507094317 6 0.0 1.6 0.00 0.00 0.00 74 1016.0
20260507093317 6 0.0 0.0 0.00 0.00 0.00 75 1016.0
20260507092315 6 0.0 0.0 0.00 0.00 0.00 75 1016.0
20260507091337 6 0.0 0.0 0.00 0.00 0.00 76 1016.1
20260507090317 6 0.0 0.0 0.00 0.00 0.00 76 1016.0
20260507085317 6 0.0 0.0 0.00 0.00 0.00 76 1016.0
20260507084317 6 0.0 0.0 0.00 0.00 0.00 78 1016.1
20260507083317 6 0.0 0.0 0.00 0.00 0.00 78 1016.1
20260507082317 6 0.0 0.0 0.00 0.00 0.00 78 1016.2
20260507081317 6 0.0 0.0 0.00 0.00 0.00 76 1016.1
20260507080317 7 0.0 0.0 0.00 0.00 0.00 74 1016.0
20260507075317 7 0.0 0.0 0.00 0.00 0.00 74 1016.1
20260507074337 7 0.0 0.0 0.00 0.00 0.00 73 1016.1
20260507073317 7 0.0 1.6 0.00 0.00 0.00 72 1016.2
20260507072317 7 0.0 0.0 0.00 0.00 0.00 70 1016.3
20260507071317 7 0.0 0.0 0.00 0.00 0.00 69 1016.4
20260507070317 8 0.0 0.0 0.00 0.00 0.00 67 1016.5
20260507065337 8 0.0 0.0 0.00 0.00 0.00 66 1016.6
20260507064317 8 0.0 0.0 0.00 0.00 0.00 65 1016.8
20260507063317 9 0.0 1.6 0.00 0.00 0.00 63 1016.9
20260507062317 10 0.0 0.0 0.00 0.00 0.00 61 1016.8
20260507061317 10 0.0 1.6 0.00 0.00 0.00 61 1016.9
20260507060317 10 0.0 1.6 0.00 0.03 0.00 60 1016.9
20260507055316 10 0.0 0.0 0.00 0.03 0.00 62 1017.0
20260507054317 9 0.0 3.2 0.00 0.03 0.00 64 1016.8
20260507053316 8 0.0 0.0 0.00 0.03 0.00 69 1016.9
20260507052317 8 0.0 0.0 0.00 0.05 0.00 72 1016.9
20260507051316 8 0.0 0.0 0.00 0.05 0.00 74 1016.9
20260507050317 8 0.0 0.0 0.00 0.08 0.00 75 1016.8
20260507045336 8 0.0 0.0 0.00 0.08 0.08 76 1016.8
20260507044316 8 0.0 0.0 0.00 0.08 0.08 76 1016.8
20260507043316 7 0.0 0.0 0.00 0.10 0.08 75 1016.6
20260507042316 7 0.0 0.0 0.00 0.10 0.08 74 1016.7
20260507041316 7 0.0 0.0 0.00 0.10 0.08 75 1016.9
20260507040316 7 0.0 0.0 0.00 0.10 0.08 74 1017.0
20260507035316 7 0.0 0.0 0.00 0.13 0.08 74 1017.0
20260507034316 7 0.0 0.0 0.00 0.13 0.08 75 1017.0
20260507033316 7 0.0 0.0 0.00 0.13 0.08 73 1016.9
20260507032336 7 0.0 0.0 0.00 0.13 0.08 73 1016.9
20260507031316 7 0.0 0.0 0.00 0.13 0.08 71 1016.9
20260507030316 7 0.0 0.0 0.00 0.13 0.08 69 1016.9
20260507025316 7 0.0 0.0 0.00 0.13 0.08 69 1016.8
20260507024316 7 0.0 0.0 0.00 0.13 0.08 67 1016.8
20260507023316 8 0.0 0.0 0.00 0.13 0.08 65 1016.7
20260507022316 8 0.0 0.0 0.00 0.13 0.08 64 1016.5
20260507021316 8 0.0 0.0 0.00 0.13 0.08 62 1016.6
20260507020316 8 0.0 0.0 0.00 0.13 0.08 61 1016.5
20260507015336 9 0.0 0.0 0.00 0.13 0.08 59 1016.4
20260507014315 10 0.0 0.0 0.00 0.13 0.08 56 1016.3
20260507013316 10 0.0 0.0 0.00 0.13 0.08 53 1016.3
20260507012336 11 0.0 0.0 0.00 0.13 0.08 51 1016.2
20260507011315 11 0.0 0.0 0.00 0.13 0.08 50 1016.2
20260507010315 12 0.0 0.0 0.00 0.13 0.08 46 1016.1
20260507005316 12 0.0 0.0 0.00 0.13 0.08 43 1016.1
20260507004335 13 0.0 0.0 0.00 0.13 0.08 41 1016.2
20260507003315 13 0.0 0.0 0.00 0.13 0.08 38 1016.1
20260507002315 14 0.0 0.0 0.00 0.13 0.08 37 1016.1
20260507001315 14 0.0 3.2 0.00 0.13 0.08 36 1016.1
20260507000315 15 0.0 0.0 0.00 0.13 0.08 34 1016.2
20260506235315 15 45 1.6 4.8 0.00 0.13 0.08 34 1016.3
20260506234316 15 23 1.6 3.2 0.00 0.13 0.08 34 1016.2
20260506233315 15 68 3.2 6.4 0.00 0.13 0.08 33 1016.3
20260506232315 16 68 1.6 1.6 0.00 0.13 0.08 32 1016.3
20260506231315 16 203 1.6 4.8 0.00 0.13 0.08 32 1016.5
20260506230315 16 90 1.6 6.4 0.00 0.13 0.08 30 1016.3
20260506225315 17 338 3.2 9.7 0.00 0.13 0.08 32 1016.4
20260506224315 17 45 3.2 8.0 0.00 0.13 0.08 31 1016.5
20260506223315 17 0.0 0.0 0.00 0.13 0.08 35 1016.4
20260506222317 17 68 1.6 6.4 0.00 0.13 0.08 30 1016.5
20260506221317 17 0.0 1.6 0.00 0.13 0.08 35 1016.6
20260506220317 17 135 1.6 3.2 0.00 0.13 0.08 34 1016.5
20260506215337 17 0.0 1.6 0.00 0.13 0.08 35 1016.5
20260506214358 17 68 1.6 3.2 0.00 0.13 0.08 32 1016.6
20260506213317 17 68 3.2 6.4 0.00 0.13 0.08 33 1016.8
20260506212317 17 203 3.2 8.0 0.00 0.13 0.08 35 1016.8
20260506211317 17 68 3.2 4.8 0.00 0.13 0.08 32 1017.1
20260506210317 17 68 1.6 3.2 0.00 0.13 0.08 36 1017.2
20260506205317 17 68 1.6 3.2 0.00 0.13 0.08 30 1017.4
20260506204317 16 23 3.2 6.4 0.00 0.13 0.08 36 1017.4
20260506203317 17 0.0 1.6 0.00 0.13 0.08 34 1017.6
20260506202317 17 68 1.6 3.2 0.00 0.13 0.08 34 1017.7
20260506201317 16 0.0 3.2 0.00 0.13 0.08 34 1017.7
20260506200317 16 45 4.8 6.4 0.00 0.13 0.08 33 1017.8
20260506195317 16 203 1.6 4.8 0.00 0.13 0.08 38 1018.0
20260506194317 16 45 3.2 6.4 0.00 0.13 0.08 35 1017.9
20260506193317 16 338 1.6 4.8 0.00 0.13 0.08 37 1017.8
20260506192337 16 68 1.6 3.2 0.00 0.13 0.08 36 1018.0